DW9636 Weather Reports


Display with metric or nautical units.
time (UTC)temp
F
wind
direction
speed
MPH
gust
MPH
rain 1hr
in
rain 24hr
in
rain mn
in
humidity
%
barometer
mb
20260902104556 48 287 0.0 0.0 0.00 0.00 0.00 84 1007.0
20260902103057 48 287 0.0 0.0 0.00 0.00 0.00 83 1007.1
20260902101548 49 287 0.0 0.0 0.00 0.00 0.00 84 1007.1
20260902100104 49 287 0.0 0.0 0.00 0.00 0.00 84 1007.3
20260902094547 48 287 0.0 0.0 0.00 0.00 0.00 83 1007.5
20260902093046 48 287 0.0 0.0 0.00 0.00 0.00 84 1007.5
20260902091604 48 287 0.0 0.0 0.00 0.00 0.00 84 1007.7
20260902090045 47 287 0.0 0.0 0.00 0.00 0.00 84 1007.7
20260902084545 48 287 0.0 0.0 0.00 0.00 0.00 83 1007.8
20260902083041 48 287 0.0 0.0 0.00 0.00 0.00 82 1007.7
20260902081541 49 287 0.0 0.0 0.00 0.00 0.00 82 1007.7
20260902080055 49 287 0.0 0.0 0.00 0.00 0.00 83 1007.6
20260902074538 49 287 0.0 0.0 0.00 0.00 0.00 82 1007.5
20260902073036 49 287 0.0 0.0 0.00 0.00 0.00 82 1007.4
20260902071552 48 287 0.0 0.0 0.00 0.00 0.00 82 1007.3
20260902070032 48 287 0.0 0.0 0.00 0.00 0.00 82 1007.5
20260902064532 48 287 0.0 0.0 0.00 0.00 0.00 82 1007.4
20260902063041 48 287 0.0 0.0 0.00 0.00 0.00 82 1007.3
20260902061541 49 287 0.0 0.0 0.00 0.00 0.00 81 1007.4
20260902060034 49 287 0.0 0.0 0.00 0.00 0.00 80 1007.6
20260902054540 50 287 0.0 0.0 0.00 0.00 0.00 79 1007.7
20260902053029 51 287 0.0 0.0 0.00 0.00 0.00 78 1007.7
20260902051531 52 287 0.0 0.0 0.00 0.00 0.00 78 1007.7
20260902050033 52 287 0.0 0.0 0.00 0.00 0.00 77 1007.6
20260902044531 53 287 0.0 0.0 0.00 0.00 0.00 75 1007.6
20260902043026 54 287 0.0 0.0 0.00 0.00 0.00 74 1007.6
20260902041532 54 287 0.0 0.0 0.00 0.00 0.00 73 1007.2
20260902040022 55 287 0.0 0.0 0.00 0.00 0.00 72 1006.9
20260902034522 56 287 0.0 0.0 0.00 0.00 0.00 70 1006.7
20260902033020 56 287 0.0 0.0 0.00 0.00 0.00 69 1006.6
20260902031520 57 287 0.0 0.0 0.00 0.00 0.00 67 1006.3
20260902030020 58 287 0.0 0.0 0.00 0.00 0.00 66 1006.0
20260902024519 58 287 0.0 0.0 0.00 0.00 0.00 64 1005.8
20260902023020 59 287 0.0 0.0 0.00 0.00 0.00 62 1005.8
20260902021525 61 279 0.0 0.0 0.00 0.00 0.00 60 1005.6
20260902020020 61 248 0.0 0.0 0.00 0.00 0.00 59 1005.3
20260902014527 62 333 0.0 0.0 0.00 0.00 0.00 57 1005.2
20260902013017 64 210 0.0 0.0 0.00 0.00 0.00 53 1005.1
20260902011548 65 319 0.0 0.0 0.00 0.00 0.00 50 1004.9
20260902000046 67 317 1.0 0.0 0.00 0.00 0.00 45 1004.5
20260901234541 67 241 0.0 0.0 0.00 0.00 0.00 44 1004.3
20260901233051 68 355 0.0 0.0 0.00 0.00 0.00 44 1004.4
20260901231549 70 259 1.0 0.0 0.00 0.00 0.00 41 1004.1
20260901230040 72 280 1.0 0.0 0.00 0.00 0.00 38 1004.0
20260901224543 74 337 0.0 0.0 0.00 0.00 0.00 35 1003.8
20260901223048 76 332 1.0 0.0 0.00 0.00 0.00 33 1003.6
20260901221538 75 261 1.0 0.0 0.00 0.00 0.00 34 1003.6
20260901220040 74 228 0.0 0.0 0.00 0.00 0.00 34 1003.6
20260901214537 75 319 1.0 0.0 0.00 0.00 0.00 32 1003.5
20260901213042 75 306 0.0 0.0 0.00 0.00 0.00 31 1003.5
20260901211536 75 275 0.0 0.0 0.00 0.00 0.00 31 1003.5
20260901210040 77 199 0.0 0.0 0.00 0.00 0.00 29 1003.6
20260901204534 75 348 0.0 0.0 0.00 0.00 0.00 28 1003.5
20260901203031 75 194 1.0 0.0 0.00 0.00 0.00 29 1003.7
20260901201527 74 273 1.0 0.0 0.00 0.00 0.00 30 1003.8
20260901200039 72 194 0.0 0.0 0.00 0.00 0.00 35 1004.0
20260901194529 72 182 0.0 0.0 0.00 0.00 0.00 35 1004.2
20260901193021 72 194 0.0 0.0 0.00 0.00 0.00 35 1004.5
20260901191528 73 223 0.0 0.0 0.00 0.00 0.00 36 1004.6
20260901190015 71 182 0.0 0.0 0.00 0.00 0.00 38 1004.8
20260901184512 69 294 0.0 0.0 0.00 0.00 0.00 38 1004.9
20260901183011 69 190 1.0 0.0 0.00 0.00 0.00 38 1005.3
20260901181505 68 202 0.0 0.0 0.00 0.00 0.00 42 1005.5
20260901180005 66 200 0.0 0.0 0.00 0.00 0.00 45 1005.5
20260901174605 66 211 0.0 0.0 0.00 0.00 0.00 48 1005.6
20260901173058 64 211 0.0 0.0 0.00 0.00 0.00 52 1005.7
20260901171552 63 214 0.0 0.0 0.00 0.00 0.00 55 1005.7
20260901170138 60 282 0.0 0.0 0.00 0.00 0.00 60 1005.7
20260901164543 59 283 0.0 0.0 0.00 0.00 0.00 63 1005.7
20260901163038 56 284 0.0 0.0 0.00 0.00 0.00 67 1006.0
20260901161534 54 286 0.0 0.0 0.00 0.00 0.00 71 1006.2
20260901160035 51 355 0.0 0.0 0.00 0.00 0.00 76 1006.2
20260901154528 48 355 0.0 0.0 0.00 0.00 0.00 81 1006.3
20260901153027 45 355 0.0 0.0 0.00 0.00 0.00 85 1006.4
20260901151526 42 355 0.0 0.0 0.00 0.00 0.00 86 1006.5
20260901150025 39 355 0.0 0.0 0.00 0.00 0.00 85 1006.6
20260901144523 38 355 0.0 0.0 0.00 0.00 0.00 83 1006.8
20260901143022 38 355 0.0 0.0 0.00 0.00 0.00 81 1006.8
20260901141525 38 355 0.0 0.0 0.00 0.00 0.00 80 1006.7
20260901140027 38 355 0.0 0.0 0.00 0.00 0.00 82 1006.5
20260901134520 37 355 0.0 0.0 0.00 0.00 0.00 80 1006.4
20260901133018 37 355 0.0 0.0 0.00 0.00 0.00 79 1006.1
20260901131524 38 355 0.0 0.0 0.00 0.00 0.00 79 1006.1
20260901130013 38 355 0.0 0.0 0.00 0.00 0.00 78 1006.1
20260901124512 39 355 0.0 0.0 0.00 0.00 0.00 77 1006.0
20260901123008 40 355 0.0 0.0 0.00 0.00 0.00 77 1006.1
20260901121506 40 355 0.0 0.0 0.00 0.00 0.00 76 1006.1
20260901120004 41 355 0.0 0.0 0.00 0.00 0.00 76 1006.3
20260901114503 41 355 0.0 0.0 0.00 0.00 0.00 76 1006.4
20260901113107 42 355 0.0 0.0 0.00 0.00 0.00 78 1006.3
20260901111606 42 355 0.0 0.0 0.00 0.00 0.00 74 1006.4
20260901110056 43 355 0.0 0.0 0.00 0.00 0.00 74 1006.3